Preview of NWS' New Version of Forecast
This preview is not operational and should not be used for support decisions.

Regional Weather Roundup (RWR)

Issued by National Weather Service (NWS)

                            
000
ASUS43 KTOP 232259
RWRKS 

WEATHER ROUNDUP FOR KANSAS
NATIONAL WEATHER SERVICE GOODLAND KS
600 PM CDT TUE APR 23 2019

NOTE:  "FAIR" INDICATES FEW OR NO CLOUDS BELOW 12,000 FEET WITH NO
SIGNIFICANT WEATHER AND/OR OBSTRUCTIONS TO VISIBILITY.

KSZ001>006-013>018-027>032-041>047-240000-
NORTHWEST KANSAS
  
CITY           SKY/WX    TMP DP  RH WIND       PRES   REMARKS
GOODLAND       MOSUNNY   64  32  30 SE8       30.02F                  
HAYS           CLOUDY    63  30  28 E7        30.03S                  
HILL CITY      PTSUNNY   67  27  22 NE7       30.03S                  
RUSSELL        CLOUDY    62  42  47 E9        30.01R                  
$$

KSZ061>065-074>080-084>089-240000-
SOUTHWEST KANSAS
  
CITY           SKY/WX    TMP DP  RH WIND       PRES   REMARKS
DODGE CITY     CLOUDY    58  33  39 N6        30.06R                  
GARDEN CITY    LGT RAIN  53  38  56 SW7       30.06F                  
GREAT BEND     CLOUDY    58  46  64 NE5       30.03S                  
LIBERAL        LGT RAIN  50  41  71 NW12      30.10R                  
$$

KSZ066>073-081>083-090>101-240000-
SOUTHEAST KANSAS
  
CITY           SKY/WX    TMP DP  RH WIND       PRES   REMARKS
CHANUTE        HVY RAIN  56  52  86 NE9       29.99F FOG              
COFFEYVILLE    CLOUDY    57  54  89 NE10      29.97F                  
HUTCHINSON     CLOUDY    54  48  80 N8        30.03S                  
MEDICINE LODGE   N/A     55  50  83 N6        30.04R                  
NEWTON         CLOUDY    53  48  83 N8        30.03S                  
PARSONS        CLOUDY    57  54  89 VRB5      30.00F                  
WICHITA INTL   CLOUDY    57  48  72 N6        30.02S                  
WICHITA JABRA  CLOUDY    55  49  80 N7        30.02F                  
WICHITA MCCONL CLOUDY    56  49  79 NE3       30.03R                  
WINFIELD       CLOUDY    55  51  86 N5        30.04R                  
$$

KSZ007>012-019>026-033>040-048>060-102>105-240000-
NORTHEAST KANSAS
  
CITY           SKY/WX    TMP DP  RH WIND       PRES   REMARKS
CONCORDIA        N/A     61  46  57 E6        30.02S                  
EMPORIA        LGT RAIN  52  50  93 N7        30.02R                  
LAWRENCE       PTSUNNY   56  47  71 E6        30.03R                  
MANHATTAN      CLOUDY    56  45  66 NE5       30.03R                  
OLATHE IND     LGT RAIN  53  49  86 N6        30.03R                  
OLATHE EXE     CLOUDY    53  49  86 CALM      30.03R                  
SALINA         CLOUDY    55  45  68 E6        30.03S                  
TOPEKA BILLARD CLOUDY    57  46  66 NE8       30.02S                  
TOPEKA FORBES  CLOUDY    55  47  74 E7        30.02S                  
$$